This is the latest recevied weather packets stored in our database for station/object KM4LTG. If no packets are shown the sender has not sent any weather packets the latest 10 day(s).
| Time | Temp. | Humidity | Pressure | Rain* | Wind** | Luminosity | Snow |
|---|---|---|---|---|---|---|---|
| 1778031311 | 24.44° C | 77% | 1016.4 hPa | 0 mm | - | - | - |
| 1778029670 | 24.44° C | 76% | 1016.2 hPa | 0 mm | - | - | - |
| 1778028255 | 24.44° C | 74% | 1015.9 hPa | 0 mm | - | - | - |
| 1778027680 | 25° C | 74% | 1015.9 hPa | 0 mm | - | - | - |
| 1778027400 | 25° C | 74% | 1015.9 hPa | 0 mm | - | - | - |
| 1778027145 | 25° C | 74% | 1015.9 hPa | 0 mm | - | - | - |
| 1778026860 | 25° C | 73% | 1015.8 hPa | 0 mm | - | - | - |
| 1778026570 | 25° C | 73% | 1015.8 hPa | 0 mm | - | - | - |
| 1778026271 | 25.56° C | 72% | 1015.7 hPa | 0 mm | - | - | - |
| 1778025973 | 25.56° C | 72% | 1015.6 hPa | 0 mm | - | - | - |
| 1778025725 | 25.56° C | 71% | 1015.6 hPa | 0 mm | - | - | - |
| 1778025175 | 25.56° C | 70% | 1015.7 hPa | 0 mm | - | - | - |
| 1778024125 | 26.11° C | 69% | 1015.5 hPa | 0 mm | - | - | - |
| 1778023885 | 26.11° C | 69% | 1015.5 hPa | 0 mm | - | - | - |
| 1778022790 | 27.22° C | 65% | 1015.4 hPa | 0 mm | - | - | - |
| 1778020840 | 27.78° C | 65% | 1015.6 hPa | 0 mm | - | - | - |
| 1778020280 | 27.78° C | 65% | 1015.7 hPa | 0 mm | - | - | - |
| 1778020000 | 27.78° C | 64% | 1015.5 hPa | 0 mm | - | - | - |
| 1778019750 | 27.78° C | 64% | 1015.5 hPa | 0 mm | - | - | - |
| 1778019485 | 28.33° C | 63% | 1015.5 hPa | 0 mm | - | - | - |
| 1778019230 | 28.33° C | 63% | 1015.3 hPa | 0 mm | - | - | - |
| 1778018969 | 28.89° C | 62% | 1015.4 hPa | 0 mm | - | - | - |
| 1778018415 | 28.33° C | 63% | 1015.3 hPa | 0 mm | - | - | - |
| 1778018135 | 28.33° C | 63% | 1015.3 hPa | 0 mm | - | - | - |
| 1778017890 | 28.33° C | 62% | 1015.4 hPa | 0 mm | - | - | - |
* Rain latest hour (hover to see other rain measurements)
** Current wind speed in m/s (hover to see current wind gust speed)